GW6387 Weather Reports


Display with metric or nautical units.
time (UTC)temp
F
wind
direction
speed
MPH
gust
MPH
rain 1hr
in
rain 24hr
in
rain mn
in
humidity
%
barometer
mb
20260504050327 52 141 0.0 1.0 0.00 0.00 0.00 58 1009.0
20260504045828 52 174 0.0 1.0 0.00 0.00 0.00 59 1009.0
20260504045327 51 128 0.0 1.0 0.00 0.00 0.00 58 1009.0
20260504044827 51 13 0.0 2.0 0.00 0.00 0.00 61 1009.0
20260504044329 51 210 0.0 2.0 0.00 0.00 0.00 60 1009.1
20260504043827 51 327 1.0 2.0 0.00 0.00 0.00 61 1009.1
20260504043327 51 11 1.0 1.0 0.00 0.00 0.00 59 1009.1
20260504042828 51 54 1.0 1.0 0.00 0.00 0.00 61 1009.1
20260504042327 51 289 1.0 1.0 0.00 0.00 0.00 61 1009.1
20260504041827 50 264 0.0 1.0 0.00 0.00 0.00 63 1009.2
20260504041327 50 210 1.0 2.0 0.00 0.00 0.00 64 1009.2
20260504040827 50 231 0.0 1.0 0.00 0.00 0.00 65 1009.2
20260504040327 50 228 0.0 1.0 0.00 0.00 0.00 67 1009.4
20260504035827 50 239 0.0 1.0 0.00 0.00 0.01 66 1009.4
20260504035327 50 261 0.0 1.0 0.00 0.00 0.01 66 1009.4
20260504034827 50 255 1.0 2.0 0.00 0.00 0.01 70 1009.5
20260504034327 50 243 1.0 1.0 0.00 0.00 0.01 67 1009.5
20260504033827 50 168 0.0 1.0 0.00 0.00 0.01 68 1009.6
20260504033328 50 207 1.0 1.0 0.00 0.00 0.01 67 1009.8
20260504032827 50 264 0.0 1.0 0.00 0.00 0.01 69 1009.7
20260504032327 50 329 0.0 1.0 0.00 0.00 0.01 68 1009.7
20260504031828 50 10 0.0 0.0 0.00 0.00 0.01 69 1009.7
20260504031327 50 250 0.0 1.0 0.00 0.00 0.01 69 1009.7
20260504030827 50 291 0.0 1.0 0.00 0.00 0.01 68 1009.8
20260504030327 50 237 0.0 1.0 0.01 0.00 0.01 68 1009.8
20260504025827 50 238 0.0 1.0 0.01 0.00 0.01 69 1009.9
20260504025327 51 185 0.0 1.0 0.01 0.00 0.01 68 1009.9
20260504024827 51 142 0.0 1.0 0.01 0.00 0.01 67 1010.0
20260504024327 51 240 1.0 2.0 0.01 0.00 0.01 66 1010.0
20260504023827 51 264 0.0 2.0 0.01 0.00 0.01 66 1010.1
20260504023327 51 248 2.0 6.0 0.01 0.00 0.01 67 1010.2
20260504022827 51 257 1.0 2.0 0.01 0.00 0.01 67 1010.3
20260504022327 51 248 2.0 3.0 0.01 0.00 0.01 67 1010.4
20260504021829 51 254 2.0 6.0 0.01 0.00 0.01 68 1010.5
20260504021327 51 258 4.0 9.0 0.01 0.00 0.01 70 1010.6
20260504020827 51 226 2.0 4.0 0.00 0.00 0.01 70 1010.8
20260504020328 52 287 2.0 5.0 0.00 0.00 0.00 69 1011.1
20260504015827 53 268 3.0 6.0 0.00 0.00 0.00 66 1011.2
20260504015328 53 353 2.0 3.0 0.00 0.00 0.00 60 1011.2
20260504014827 54 229 2.0 4.0 0.00 0.00 0.00 57 1010.8
20260504014327 54 265 5.0 9.0 0.00 0.00 0.00 56 1010.5
20260504013827 54 256 2.0 3.0 0.00 0.00 0.00 55 1010.5
20260504013328 54 280 2.0 4.0 0.00 0.00 0.00 54 1010.4
20260504012828 55 353 2.0 4.0 0.00 0.00 0.00 53 1010.2
20260504012328 55 272 2.0 4.0 0.00 0.00 0.00 52 1010.2
20260504011827 55 268 3.0 7.0 0.00 0.00 0.00 52 1010.1
20260504011327 55 251 3.0 4.0 0.00 0.00 0.00 51 1010.0
20260504010827 55 261 5.0 9.0 0.00 0.00 0.00 50 1009.9
20260504010327 55 279 2.0 5.0 0.00 0.00 0.00 50 1009.9
20260504005827 55 225 5.0 8.0 0.00 0.00 0.00 49 1009.7
20260504005328 54 263 2.0 6.0 0.00 0.00 0.00 50 1009.7
20260504004827 54 253 5.0 11.0 0.00 0.00 0.00 50 1009.7
20260504004327 53 244 0.0 2.0 0.00 0.00 0.00 54 1009.8
20260504003827 53 282 1.0 2.0 0.00 0.00 0.00 51 1009.5
20260504003327 52 283 2.0 5.0 0.00 0.00 0.00 55 1009.7
20260504002828 52 159 0.0 2.0 0.00 0.00 0.00 55 1009.7
20260504002328 52 20 1.0 2.0 0.00 0.00 0.00 57 1009.6
20260504001827 52 302 1.0 2.0 0.00 0.00 0.00 58 1009.6
20260504001327 53 176 1.0 1.0 0.00 0.00 0.00 55 1009.6
20260504000827 53 217 0.0 1.0 0.00 0.00 0.00 56 1009.7
20260504000327 53 265 1.0 1.0 0.00 0.00 0.00 54 1009.7
20260503235827 53 35 0.0 1.0 0.00 0.00 0.00 54 1009.6
20260503235327 53 221 3.0 5.0 0.00 0.00 0.00 52 1009.7
20260503234827 54 354 1.0 2.0 0.00 0.00 0.00 52 1009.8
20260503234327 54 263 2.0 5.0 0.00 0.00 0.00 51 1009.9
20260503233827 54 230 3.0 5.0 0.00 0.00 0.00 51 1009.9
20260503233327 54 218 2.0 4.0 0.00 0.00 0.00 50 1010.1
20260503232827 54 265 4.0 8.0 0.00 0.00 0.00 49 1010.0
20260503232327 54 266 4.0 8.0 0.00 0.00 0.00 47 1009.9
20260503231827 54 11 2.0 3.0 0.00 0.00 0.00 48 1009.9
20260503231328 54 40 2.0 4.0 0.00 0.00 0.00 48 1009.8
20260503230827 54 288 2.0 3.0 0.00 0.00 0.00 48 1009.9
20260503230327 54 247 1.0 3.0 0.00 0.00 0.00 47 1009.8
20260503225827 55 265 1.0 2.0 0.00 0.00 0.00 48 1009.7
20260503225327 55 287 2.0 4.0 0.00 0.00 0.00 46 1009.6
20260503224827 55 273 2.0 4.0 0.00 0.00 0.00 46 1009.6
20260503224327 55 277 1.0 3.0 0.00 0.00 0.00 47 1009.5
20260503223828 56 265 2.0 5.0 0.00 0.00 0.00 46 1009.5
20260503223327 56 193 1.0 2.0 0.00 0.00 0.00 45 1009.6
20260503222827 56 0 0.0 1.0 0.00 0.00 0.00 44 1009.5
20260503222327 56 255 2.0 6.0 0.00 0.00 0.00 47 1009.4
20260503221827 56 290 2.0 2.0 0.00 0.00 0.00 45 1009.4
20260503221327 55 210 4.0 8.0 0.00 0.00 0.00 46 1009.5
20260503220827 55 261 1.0 2.0 0.00 0.00 0.00 46 1009.7
20260503220327 55 260 1.0 3.0 0.00 0.00 0.00 47 1009.7
20260503215829 56 237 2.0 4.0 0.00 0.00 0.00 48 1009.7
20260503215327 56 327 1.0 2.0 0.00 0.00 0.00 47 1009.7
20260503214827 56 297 2.0 3.0 0.00 0.00 0.00 47 1009.6
20260503214328 56 240 4.0 6.0 0.00 0.00 0.00 46 1009.6
20260503213827 55 334 1.0 2.0 0.00 0.00 0.00 49 1009.6
20260503213327 55 223 2.0 3.0 0.00 0.00 0.00 48 1009.6
20260503212827 55 286 2.0 4.0 0.00 0.00 0.00 48 1009.7
20260503212328 56 0 2.0 5.0 0.00 0.00 0.00 47 1009.6
20260503211827 56 345 2.0 5.0 0.00 0.00 0.00 47 1009.6
20260503211327 57 251 2.0 3.0 0.00 0.00 0.00 47 1009.6
20260503210827 57 273 3.0 6.0 0.00 0.00 0.00 46 1009.3
20260503210327 56 293 2.0 3.0 0.00 0.00 0.00 47 1009.4
20260503205827 56 261 5.0 8.0 0.00 0.00 0.00 47 1009.7
20260503205327 56 282 1.0 4.0 0.00 0.00 0.00 48 1009.6
20260503204827 56 7 2.0 3.0 0.00 0.00 0.00 47 1009.7
20260503204327 56 326 1.0 2.0 0.00 0.00 0.00 47 1009.8
20260503203827 56 46 2.0 5.0 0.00 0.00 0.00 46 1009.7
20260503203327 57 252 4.0 9.0 0.00 0.00 0.00 45 1009.5
20260503202827 56 228 3.0 8.0 0.00 0.00 0.00 45 1009.2
20260503202328 55 276 4.0 7.0 0.00 0.00 0.00 47 1009.5
20260503201827 54 278 2.0 3.0 0.00 0.00 0.00 47 1010.0
20260503201327 54 334 3.0 6.0 0.00 0.00 0.00 47 1010.2
20260503200827 54 263 3.0 6.0 0.00 0.00 0.00 46 1010.3
20260503200328 54 320 1.0 2.0 0.00 0.00 0.00 47 1010.4
20260503195827 54 261 2.0 4.0 0.00 0.00 0.00 47 1010.4
20260503195327 54 242 2.0 5.0 0.00 0.00 0.00 46 1010.4
20260503194827 54 293 2.0 4.0 0.00 0.00 0.00 47 1010.4
20260503194327 54 236 4.0 10.0 0.00 0.00 0.00 46 1010.6
20260503193829 55 280 1.0 2.0 0.00 0.00 0.00 46 1010.6
20260503193327 55 293 1.0 2.0 0.00 0.00 0.00 46 1010.7
20260503192827 55 210 4.0 7.0 0.00 0.00 0.00 43 1010.7
20260503192327 56 261 4.0 7.0 0.00 0.00 0.00 44 1010.7
20260503191827 56 228 4.0 6.0 0.00 0.00 0.00 42 1010.4
20260503191327 56 11 2.0 5.0 0.00 0.00 0.00 41 1010.0
20260503190829 56 220 4.0 7.0 0.00 0.00 0.00 43 1010.6
20260503190327 57 267 5.0 8.0 0.00 0.00 0.00 41 1010.6
20260503185828 58 244 5.0 7.0 0.00 0.00 0.00 40 1010.2
20260503185328 57 345 3.0 5.0 0.00 0.00 0.00 40 1010.0
20260503184827 57 17 3.0 6.0 0.00 0.00 0.00 39 1010.5
20260503184327 57 341 2.0 5.0 0.00 0.00 0.00 42 1010.2
20260503183827 57 317 2.0 4.0 0.00 0.00 0.00 40 1010.7
20260503183327 57 257 2.0 4.0 0.00 0.00 0.00 40 1010.7
20260503182827 57 264 4.0 7.0 0.00 0.00 0.00 41 1011.0
20260503182327 58 21 2.0 3.0 0.00 0.00 0.00 38 1010.7
20260503181827 57 256 3.0 4.0 0.00 0.00 0.00 40 1010.6
20260503181327 56 256 3.0 5.0 0.00 0.00 0.00 43 1010.6
20260503180827 56 11 3.0 4.0 0.00 0.00 0.00 39 1010.6
20260503180327 56 40 2.0 3.0 0.00 0.00 0.00 39 1010.6
20260503175827 56 18 2.0 4.0 0.00 0.00 0.00 39 1010.8
20260503175327 55 319 2.0 5.0 0.00 0.00 0.00 40 1011.1
20260503174828 55 291 3.0 5.0 0.00 0.00 0.00 40 1011.1
20260503174327 55 230 7.0 14.0 0.00 0.00 0.00 39 1011.3
20260503173827 55 304 2.0 4.0 0.00 0.00 0.00 42 1011.2
20260503173327 56 234 2.0 5.0 0.00 0.00 0.00 41 1011.1
20260503172827 55 10 2.0 4.0 0.00 0.00 0.00 38 1011.2
20260503172330 55 28 2.0 4.0 0.00 0.00 0.00 39 1011.2
20260503171827 55 306 3.0 5.0 0.00 0.00 0.00 40 1011.3
20260503171327 55 224 2.0 5.0 0.00 0.00 0.00 40 1011.2
20260503170827 55 13 2.0 4.0 0.00 0.00 0.00 41 1011.2
20260503170329 55 273 3.0 5.0 0.00 0.00 0.00 39 1011.4
20260503150828 51 357 3.0 6.0 0.00 0.00 0.00 46 1012.6
20260503150327 51 2 2.0 3.0 0.00 0.00 0.00 47 1012.3
20260503131327 48 39 2.0 4.0 0.00 0.00 0.00 62 1013.0
20260503130827 48 266 2.0 5.0 0.00 0.00 0.00 62 1013.0
20260503130327 48 307 2.0 6.0 0.00 0.00 0.00 60 1013.0
20260503110827 40 305 1.0 3.0 0.00 0.00 0.00 78 1013.0
20260503110327 39 223 1.0 2.0 0.00 0.00 0.00 80 1013.1
20260503090327 39 208 1.0 3.0 0.00 0.00 0.00 81 1012.9
20260503081329 39 221 2.0 3.0 0.00 0.00 0.00 80 1013.0
20260503080827 39 244 1.0 4.0 0.00 0.00 0.00 80 1013.0
20260503080327 39 262 2.0 6.0 0.00 0.00 0.00 80 1012.9
20260503072827 39 263 2.0 3.0 0.00 0.00 0.00 82 1012.9
20260503072327 39 281 1.0 2.0 0.00 0.00 0.00 82 1012.9
20260503071827 39 269 1.0 2.0 0.00 0.00 0.00 82 1012.9
20260503071327 39 243 2.0 3.0 0.00 0.00 0.00 83 1012.9
20260503070827 39 261 1.0 2.0 0.00 0.00 0.00 83 1012.9
20260503070327 39 242 3.0 4.0 0.00 0.00 0.00 83 1012.9